Flag for U.S.A. Weather past 2 weeks in Provincetown, Massachusetts, U.S.A.

Now
37 °F

Clear.


Feels Like: 31 °F
Forecast: 33 / 39 °F
Wind: 9 mph from North

Location: Provincetown Weather Reporting Station

Current Time: Apr 1, 2015 at 2:52:14 AM

Latest Report: Apr 1, 2015 at 2:15 AM


Visibility: 10 mi

Pressure: 29.77 "Hg

Humidity: 70%

Dew point: 28 °F

Location of ProvincetownLocation

Historic Weather in Provincetown — Graph

°F

Provincetown temperature yesterday

Maximum temperature yesterday: 46 °F (at 2:15 PM)
Minimum temperature yesterday: 36 °F (at 12:15 AM)
Average temperature yesterday: 40 °F

Past Weeks' High & Low Weather Summary

 TemperatureHumidityPressure
High54 °F (Mar 26, 10:35 PM)100% (Mar 21, 3:35 AM)30.43 "Hg (Mar 21, 3:35 AM)
Low19 °F (Mar 23, 5:35 AM)29% (Mar 18, 4:55 PM)29.37 "Hg (Mar 17, 3:55 PM)
Average34 °F65%29.97 "Hg
* Reported Mar 17 1:15 AM — Apr 1 1:35 AM, Provincetown, Weather by CustomWeather, © 2015

Note: Actual official high and low records may vary slightly from our data, if they occured in-between our weather recording intervals... More about our weather records

Advertising

Provincetown weather history for previous 24 hours

 ConditionsComfort  
Time TempWeatherWind HumidityBarometerVisibility
1:35 AM
Wed, Apr 1
39 °FClear.7 mph61%29.76 "Hg10 mi
1:15 AM39 °FClear.8 mph61%29.76 "Hg10 mi
12:55 AM39 °FClear.8 mph70%29.76 "Hg10 mi
12:35 AM39 °FPassing clouds.9 mph70%29.75 "Hg10 mi
12:15 AM39 °FOvercast.7 mph70%29.75 "Hg10 mi
11:55 PM
Tue, Mar 31
39 °FOvercast.9 mph75%29.76 "Hg10 mi
11:35 PM37 °FOvercast.5 mph81%29.76 "Hg10 mi
10:55 PM37 °FOvercast.5 mph81%29.76 "Hg10 mi
10:35 PM37 °FOvercast.6 mph81%29.76 "Hg10 mi
10:15 PM37 °FOvercast.9 mph87%29.76 "Hg10 mi
9:55 PM39 °FOvercast.9 mph75%29.77 "Hg10 mi
9:35 PM39 °FPassing clouds.12 mph70%29.77 "Hg10 mi
9:15 PM39 °FPassing clouds.8 mph70%29.77 "Hg10 mi
8:55 PM37 °FPassing clouds.9 mph75%29.77 "Hg10 mi
8:35 PM39 °FPassing clouds.9 mph70%29.76 "Hg10 mi
8:15 PM39 °FPassing clouds.12 mph65%29.76 "Hg10 mi
7:55 PM39 °FPassing clouds.10 mph70%29.75 "Hg10 mi
7:35 PM39 °FPartly sunny.9 mph70%29.75 "Hg10 mi
7:15 PM41 °FPartly sunny.12 mph66%29.74 "Hg10 mi
6:55 PM41 °FPassing clouds.9 mph61%29.73 "Hg10 mi
6:35 PM41 °FPassing clouds.10 mph66%29.74 "Hg10 mi
6:15 PM43 °FScattered clouds.6 mph61%29.74 "Hg10 mi
5:55 PM43 °FPassing clouds.5 mph61%29.73 "Hg10 mi
5:15 PM45 °FSunny.6 mph53%29.72 "Hg10 mi
4:55 PM45 °FSunny.5 mph53%29.72 "Hg10 mi
4:35 PM45 °FSunny.7 mph53%29.71 "Hg10 mi
4:15 PM45 °FSunny.6 mph49%29.71 "Hg10 mi
3:55 PM45 °FSunny.7 mph42%29.70 "Hg10 mi
3:35 PM45 °FSunny.3 mph42%29.70 "Hg10 mi
3:15 PM46 °FSunny.3 mph43%29.70 "Hg10 mi
2:55 PM45 °FSunny.5 mph46%29.71 "Hg10 mi
2:35 PM46 °FSunny.5 mph46%29.72 "Hg10 mi
2:15 PM46 °FSunny.6 mph46%29.72 "Hg10 mi
1:55 PM45 °FSunny.8 mph46%29.73 "Hg10 mi
1:35 PM45 °FSunny.8 mph46%29.73 "Hg10 mi
1:15 PM45 °FSunny.8 mph49%29.73 "Hg10 mi
12:55 PM45 °FSunny.7 mph49%29.74 "Hg10 mi
12:35 PM45 °FSunny.9 mph49%29.75 "Hg10 mi
12:15 PM45 °FSunny.7 mph53%29.75 "Hg10 mi
11:55 AM43 °FSunny.10 mph53%29.76 "Hg10 mi
11:35 AM45 °FSunny.9 mph53%29.76 "Hg10 mi
11:15 AM43 °FSunny.9 mph57%29.77 "Hg10 mi
10:55 AM43 °FSunny.6 mph57%29.77 "Hg10 mi
10:35 AM43 °FSunny.9 mph57%29.78 "Hg10 mi
10:15 AM43 °FSunny.10 mph57%29.78 "Hg10 mi
9:55 AM41 °FSunny.13 mph61%29.78 "Hg10 mi
9:35 AM39 °FSunny.10 mph70%29.78 "Hg10 mi
9:15 AM39 °FSunny.13 mph70%29.78 "Hg10 mi
8:55 AM39 °FSunny.14 mph70%29.78 "Hg10 mi
8:35 AM37 °FSunny.13 mph75%29.78 "Hg10 mi
8:15 AM37 °FSunny.13 mph75%29.77 "Hg10 mi
7:55 AM37 °FSunny.12 mph70%29.76 "Hg10 mi
7:35 AM36 °FSunny.10 mph81%29.76 "Hg10 mi
7:15 AM36 °FClear.12 mph75%29.75 "Hg10 mi
6:55 AM36 °FClear.15 mph75%29.74 "Hg10 mi
6:35 AM36 °FClear.13 mph75%29.73 "Hg10 mi
6:15 AM36 °FClear.14 mph75%29.72 "Hg10 mi
5:55 AM36 °FClear.14 mph75%29.72 "Hg10 mi
5:35 AM36 °FClear.13 mph75%29.71 "Hg10 mi
5:15 AM36 °FClear.14 mph75%29.71 "Hg10 mi
4:55 AM36 °FClear.15 mph75%29.70 "Hg10 mi
4:35 AM36 °FClear.13 mph81%29.70 "Hg10 mi
4:15 AM36 °FClear.12 mph75%29.70 "Hg10 mi
3:55 AM36 °FClear.13 mph75%29.70 "Hg10 mi
3:35 AM36 °FClear.13 mph75%29.70 "Hg10 mi
3:15 AM36 °FClear.15 mph75%29.70 "Hg10 mi
2:55 AM36 °FClear.13 mph75%29.70 "Hg10 mi
2:35 AM36 °FClear.12 mph75%29.71 "Hg10 mi
2:15 AM36 °FClear.13 mph75%29.71 "Hg10 mi
Weather by CustomWeather, © 2015

See weather overviewHow to use our weather pages